[[{"header":{"parameterUnit":"m.s-1","parameterCategory":1,"la1":30.2991,"la2":30.254,"lo1":-89.0895,"lo2":-89.0444,"dy":0.0017,"dx":0.0017,"nx":28,"ny":28,"refTime":"2024-07-02T09:00:00:Z","depth":0,"parameterNumber":2,"parameterNumberName":"U-component_of_WINDS"},"data":[0,0,0,0,0,0,0,0,0,0,0,0,0,0,0,0,0,0,0,0,0,0,0,0,0,0,0,0,0,0,0,0,0,0,0,0,0,0,0,0,0,0,0,0,0,0,0,0,0,0,0,0,0,0,0,0,0,0,1.1106,1.1106,0,1.1114,1.1114,1.1114,1.103,1.1027,1.1025,1.1023,1.1036,1.1039,1.1041,0,0,0,0,0,0,0,0,0,0,0,0,0,1.1022,1.1024,1.1106,1.1106,1.1106,1.1114,1.1114,1.1114,1.103,1.1027,1.1024,1.1022,1.1035,1.1038,1.1041,0,0,0,0,0,0,0,0,0,0,0,0,0,1.1047,1.1025,1.1106,1.1065,1.1061,1.1114,1.1114,1.1114,1.1031,1.1027,1.1024,1.102,1.1034,1.1038,1.1042,1.1136,0,0,1.1053,1.1055,0,0,0,0,0,0,0,0,1.1046,1.1051,1.1071,1.1068,1.1064,1.1067,1.1089,1.1122,1.1031,1.1042,1.1023,1.1019,1.105,1.1052,1.1061,1.1136,1.1137,1.1054,1.1056,1.1058,1.1059,0,0,0,0,0,0,0,1.1044,1.105,1.1109,1.1071,1.1067,1.1048,1.1047,1.1095,1.1066,1.1041,1.1035,1.1037,1.1047,1.1058,1.1061,1.1137,1.1054,1.1057,1.1059,1.1061,1.1291,1.1294,0,0,0,0,0,0,1.1047,1.1049,1.1109,1.1109,1.1046,1.1052,1.1052,1.107,1.1065,1.1061,1.104,1.1033,1.1053,1.1057,1.1061,1.1171,1.1058,1.1061,1.1063,1.1287,1.1291,1.1296,0,0,0,0,0,0,1.1046,1.1054,1.1109,1.1077,1.1083,1.1057,1.1078,1.1072,1.1082,1.1064,1.1059,1.1056,1.105,1.1056,1.1118,1.1171,1.1063,1.1066,1.1282,1.1288,1.1293,1.1392,0,0,0,0,0,0,1.1044,1.1054,1.1088,1.1079,1.1085,1.1164,1.1081,1.1074,1.1089,1.108,1.1078,1.1074,1.1048,1.1112,1.1121,1.1174,1.1069,1.1277,1.1285,1.1292,1.1384,1.1401,1.1415,0,0,0,0,0,1.1041,1.1116,1.109,1.1098,1.1127,1.1167,1.1171,1.1138,1.1093,1.1128,1.1116,1.1074,1.1163,1.1119,1.1129,1.1183,1.1274,1.1283,1.1291,1.1378,1.1398,1.1415,0,0,0,0,0,0,1.1134,1.1114,1.1085,1.1159,1.1165,1.1153,1.1196,1.116,1.118,1.1171,1.1131,1.1131,1.12,1.1198,1.1149,1.1275,1.1211,1.1222,1.1274,1.1292,1.1307,1.1307,1.1073,0,0,0,0,0,1.1163,1.1196,1.1177,1.1245,1.1249,1.1222,1.1238,1.1212,1.1217,1.122,1.1213,1.1221,1.1251,1.1271,1.1298,1.1383,1.1383,1.1426,1.1441,1.1454,1.1464,1.151,1.1529,1.1324,1.1324,1.1323,0,0,1.1224,1.1217,1.124,1.1263,1.1265,1.1301,1.1225,1.1266,1.1293,1.1227,1.1284,1.128,1.1286,1.1361,1.1393,1.1361,1.152,1.1465,1.1475,1.1478,1.1521,1.154,1.1558,1.133,1.1328,1.1328,0,0,1.1352,1.135,1.1406,1.1409,1.1412,1.1393,1.1407,1.14,1.1393,1.145,1.1401,1.1434,1.1485,1.1492,1.1503,1.1634,1.1596,1.1644,1.1724,1.177,1.1786,1.18,1.1848,1.1865,1.1654,1.1654,1.1654,0,1.1428,1.1478,1.144,1.1484,1.1496,1.1436,1.1494,1.1499,1.1511,1.1522,1.1485,1.1549,1.1549,1.1624,1.1656,1.1667,1.1682,1.1644,1.1786,1.18,1.1813,1.1858,1.1876,1.166,1.1659,1.1659,1.1658,0,1.1571,1.1608,1.1653,1.1664,1.1681,1.1732,1.1703,1.1725,1.1698,1.1684,1.1743,1.1741,1.1766,1.1782,1.1756,1.1854,1.1834,1.1793,1.1728,1.1839,1.1881,1.1898,1.1668,1.1666,1.1665,1.1663,0,0,1.1759,1.1748,1.1766,1.177,1.1769,1.1797,1.1846,1.1869,1.1889,1.19,1.194,1.1986,1.1947,1.1959,1.1934,1.1973,1.2079,1.1927,1.1926,1.1956,1.2188,1.222,1.224,1.2053,1.2057,1.2059,1.2188,0,1.1885,1.1966,1.1933,1.2017,1.2051,1.1994,1.2037,1.2042,1.203,1.2059,1.2046,1.2079,1.2025,1.2032,1.2069,1.2058,1.2125,1.2048,1.2093,1.2095,1.2093,1.2262,1.2296,1.2417,1.2204,1.2206,1.2208,0,1.2043,1.2058,1.2146,1.2138,1.2151,1.219,1.2209,1.2236,1.2241,1.223,1.2243,1.2209,1.2258,1.2193,1.2261,1.2209,1.2226,1.2223,1.2227,1.2231,1.2159,1.2271,1.2455,1.2474,1.2234,1.2232,1.223,0,1.2172,1.2215,1.2272,1.2278,1.2271,1.23,1.2299,1.23,1.2316,1.2333,1.2343,1.2366,1.238,1.2399,1.2373,1.2328,1.2445,1.2378,1.2439,1.244,1.2466,1.2465,1.2657,1.2476,1.2476,1.2475,1.2475,0,1.2316,1.2372,1.233,1.2366,1.2428,1.239,1.2452,1.2445,1.2447,1.2481,1.2435,1.2469,1.2431,1.2462,1.2442,1.2502,1.2508,1.2502,1.2496,1.2507,1.2508,1.2517,1.2509,1.248,1.2479,1.2478,1.2477,0,1.2471,1.2445,1.2505,1.2493,1.2491,1.2538,1.2528,1.2562,1.2547,1.2591,1.26,1.2577,1.2611,1.2586,1.2621,1.2607,1.2686,1.2668,1.2684,1.2679,1.2742,1.2737,1.2947,1.2973,1.2775,1.2777,1.2779,0,1.2565,1.2607,1.2599,1.2618,1.2619,1.2651,1.2667,1.2631,1.265,1.2659,1.2692,1.2721,1.2743,1.2801,1.2788,1.2815,1.2797,1.2869,1.2801,1.2811,1.28,1.2798,1.2802,1.2883,1.2886,1.2888,1.2889,0,1.2735,1.272,1.2744,1.2764,1.2783,1.2798,1.2808,1.2827,1.2791,1.2815,1.2848,1.2865,1.2899,1.293,1.2952,1.2952,1.2916,1.291,1.2926,1.2938,1.2945,1.2943,1.2722,1.2906,1.2904,1.2903,1.2902,1.2902,1.2863,1.2898,1.2897,1.2926,1.293,1.2941,1.2972,1.296,1.2986,1.301,1.2988,1.3029,1.3034,1.3059,1.3064,1.3096,1.3067,1.3089,1.3095,1.3102,1.3111,1.294,1.31,1.3099,1.3099,1.3099,1.3098,0,1.3031,1.3028,1.3054,1.307,1.3093,1.3054,1.3064,1.3086,1.3122,1.3128,1.315,1.319,1.3219,1.3209,1.3236,1.3264,1.3248,1.3272,1.327,1.3271,1.3135,1.3119,1.3284,1.3284,1.3284,1.3284,1.3284,1.3284,1.3121,1.3178,1.3163,1.3222,1.3219,1.3256,1.3266,1.3276,1.3281,1.3326,1.335,1.3342,1.3343,1.3369,1.3395,1.3392,1.3404,1.3435,1.3426,1.3299,1.328,1.3263,1.3248,1.3438,1.3438,1.3559,1.356,1.3561]},{"header":{"parameterUnit":"m.s-1","parameterCategory":1,"la1":30.2991,"la2":30.254,"lo1":-89.0895,"lo2":-89.0444,"dy":0.0017,"dx":0.0017,"nx":28,"ny":28,"refTime":"2024-07-02T09:00:00:Z","depth":0,"parameterNumber":3,"parameterNumberName":"V-component_of_WINDS"},"data":[0,0,0,0,0,0,0,0,0,0,0,0,0,0,0,0,0,0,0,0,0,0,0,0,0,0,0,0,0,0,0,0,0,0,0,0,0,0,0,0,0,0,0,0,0,0,0,0,0,0,0,0,0,0,0,0,0,0,-0.8219,-0.822,0,-0.8332,-0.8333,-0.8335,-0.8415,-0.8415,-0.8416,-0.8417,-0.8536,-0.8538,-0.8541,0,0,0,0,0,0,0,0,0,0,0,0,0,-0.8074,-0.8076,-0.8218,-0.822,-0.8221,-0.8332,-0.8333,-0.8335,-0.8415,-0.8415,-0.8416,-0.8417,-0.8535,-0.8538,-0.8541,0,0,0,0,0,0,0,0,0,0,0,0,0,-0.8157,-0.8077,-0.8218,-0.8274,-0.828,-0.8331,-0.8333,-0.8335,-0.8414,-0.8415,-0.8416,-0.8417,-0.8534,-0.8537,-0.8541,-0.8546,0,0,-0.8553,-0.8555,0,0,0,0,0,0,0,0,-0.8152,-0.8162,-0.8265,-0.8271,-0.8278,-0.836,-0.8326,-0.8406,-0.8414,-0.8364,-0.8417,-0.8418,-0.8477,-0.8485,-0.8505,-0.8552,-0.8557,-0.8553,-0.8556,-0.8557,-0.8559,0,0,0,0,0,0,0,-0.8146,-0.8158,-0.8264,-0.8266,-0.8274,-0.8295,-0.8308,-0.8342,-0.8414,-0.8368,-0.8374,-0.8386,-0.848,-0.8501,-0.8508,-0.8559,-0.8553,-0.8557,-0.8559,-0.8561,-0.8617,-0.8617,0,0,0,0,0,0,-0.8131,-0.8152,-0.826,-0.8267,-0.8216,-0.8297,-0.8311,-0.8333,-0.8413,-0.8427,-0.8385,-0.839,-0.8493,-0.8503,-0.8512,-0.8524,-0.8557,-0.8561,-0.8563,-0.8618,-0.8617,-0.8616,0,0,0,0,0,0,-0.8128,-0.814,-0.8255,-0.8211,-0.8228,-0.8298,-0.8322,-0.8334,-0.8355,-0.8426,-0.844,-0.8393,-0.8495,-0.8507,-0.8537,-0.8529,-0.8563,-0.8566,-0.8619,-0.8618,-0.8617,-0.8547,0,0,0,0,0,0,-0.8123,-0.8138,-0.814,-0.8211,-0.823,-0.8277,-0.8321,-0.8336,-0.8361,-0.8367,-0.8437,-0.8449,-0.8496,-0.8531,-0.8541,-0.8535,-0.8569,-0.862,-0.8619,-0.8617,-0.855,-0.8543,-0.8537,0,0,0,0,0,-0.8118,-0.8116,-0.814,-0.8152,-0.8233,-0.8276,-0.8287,-0.8341,-0.836,-0.8363,-0.8409,-0.8447,-0.8529,-0.8534,-0.8546,-0.8541,-0.8621,-0.8619,-0.8617,-0.8553,-0.8545,-0.8537,0,0,0,0,0,0,-0.8044,-0.8127,-0.8154,-0.8175,-0.8218,-0.829,-0.8295,-0.833,-0.8369,-0.8374,-0.8439,-0.8454,-0.8478,-0.8513,-0.8517,-0.855,-0.858,-0.858,-0.8526,-0.8519,-0.8513,-0.8504,-0.8573,0,0,0,0,0,-0.803,-0.8057,-0.8128,-0.814,-0.816,-0.8224,-0.8244,-0.8282,-0.833,-0.8348,-0.8397,-0.8443,-0.8479,-0.8501,-0.8538,-0.8556,-0.8573,-0.8559,-0.8552,-0.8547,-0.8546,-0.8559,-0.8553,-0.861,-0.861,-0.861,0,0,-0.8001,-0.805,-0.8063,-0.8126,-0.8164,-0.8192,-0.8238,-0.8266,-0.8287,-0.8353,-0.8384,-0.8421,-0.8477,-0.8501,-0.8514,-0.8531,-0.8534,-0.8544,-0.8539,-0.8542,-0.8556,-0.8551,-0.8546,-0.8609,-0.8609,-0.8609,0,0,-0.7963,-0.8002,-0.8017,-0.8054,-0.811,-0.8152,-0.8156,-0.8223,-0.825,-0.8282,-0.8332,-0.8359,-0.842,-0.8458,-0.8485,-0.8462,-0.8498,-0.8472,-0.8439,-0.845,-0.8446,-0.8442,-0.8434,-0.843,-0.8472,-0.8471,-0.8471,0,-0.792,-0.7963,-0.802,-0.8044,-0.807,-0.8131,-0.8146,-0.818,-0.8246,-0.8263,-0.8281,-0.8358,-0.84,-0.8434,-0.8428,-0.8448,-0.8455,-0.8464,-0.8442,-0.8438,-0.8436,-0.8429,-0.8426,-0.8468,-0.8468,-0.8469,-0.8469,0,-0.7908,-0.7937,-0.7942,-0.8003,-0.8031,-0.805,-0.8111,-0.8132,-0.8167,-0.8208,-0.8241,-0.8293,-0.8342,-0.8353,-0.8388,-0.8392,-0.8401,-0.8429,-0.846,-0.8426,-0.842,-0.8418,-0.8463,-0.8464,-0.8465,-0.8466,0,0,-0.7825,-0.7918,-0.7919,-0.7947,-0.8015,-0.8039,-0.8062,-0.8109,-0.8126,-0.817,-0.8191,-0.8241,-0.8268,-0.8299,-0.8339,-0.8349,-0.8327,-0.8376,-0.8379,-0.8365,-0.8336,-0.8313,-0.8309,-0.8353,-0.8352,-0.8352,-0.8331,0,-0.7797,-0.784,-0.7892,-0.7918,-0.7946,-0.8004,-0.8024,-0.8068,-0.8107,-0.8138,-0.8182,-0.8216,-0.8249,-0.8268,-0.828,-0.8327,-0.8322,-0.833,-0.8374,-0.8375,-0.8357,-0.8306,-0.8283,-0.826,-0.8329,-0.8329,-0.8329,0,-0.777,-0.781,-0.7838,-0.7903,-0.7917,-0.7933,-0.7981,-0.8009,-0.8061,-0.8089,-0.8123,-0.8166,-0.8194,-0.8222,-0.8263,-0.8266,-0.8288,-0.8314,-0.8314,-0.832,-0.8349,-0.831,-0.8254,-0.825,-0.8326,-0.8326,-0.8326,0,-0.7706,-0.7767,-0.7792,-0.7815,-0.7892,-0.7902,-0.7935,-0.7988,-0.8013,-0.8055,-0.8072,-0.8117,-0.8142,-0.8177,-0.8231,-0.8246,-0.8266,-0.8298,-0.8291,-0.8289,-0.8292,-0.8291,-0.8238,-0.8306,-0.8306,-0.8306,-0.8306,0,-0.7669,-0.7684,-0.7765,-0.778,-0.7798,-0.7859,-0.7876,-0.7914,-0.7961,-0.7985,-0.8039,-0.8061,-0.8132,-0.8163,-0.8207,-0.8234,-0.8245,-0.8269,-0.828,-0.8264,-0.826,-0.8278,-0.8281,-0.8306,-0.8306,-0.8306,-0.8306,0,-0.7601,-0.7655,-0.7686,-0.7756,-0.7774,-0.7785,-0.7846,-0.7863,-0.7906,-0.7936,-0.7947,-0.8014,-0.8053,-0.8111,-0.8168,-0.8197,-0.8218,-0.8237,-0.82,-0.8206,-0.8195,-0.8195,-0.8151,-0.8149,-0.8219,-0.8218,-0.8217,0,-0.7573,-0.7586,-0.7657,-0.7677,-0.7707,-0.7739,-0.7764,-0.7825,-0.785,-0.791,-0.792,-0.7964,-0.8001,-0.8061,-0.8116,-0.816,-0.818,-0.8162,-0.8187,-0.817,-0.818,-0.8178,-0.818,-0.8155,-0.8154,-0.8153,-0.8153,0,-0.7518,-0.7545,-0.7579,-0.7623,-0.7652,-0.769,-0.7731,-0.7744,-0.7814,-0.7839,-0.7879,-0.7908,-0.7966,-0.8009,-0.8061,-0.8096,-0.8136,-0.8144,-0.8145,-0.8128,-0.8106,-0.8117,-0.8183,-0.8145,-0.8146,-0.8146,-0.8147,-0.8147,-0.747,-0.7483,-0.7536,-0.7573,-0.7609,-0.7646,-0.7666,-0.7711,-0.7745,-0.7796,-0.783,-0.7868,-0.7921,-0.7995,-0.8028,-0.806,-0.8077,-0.8078,-0.8078,-0.8077,-0.8071,-0.8101,-0.807,-0.807,-0.807,-0.8071,-0.8071,0,-0.7417,-0.7454,-0.7487,-0.7541,-0.7571,-0.7605,-0.7652,-0.7674,-0.7707,-0.7752,-0.7788,-0.7835,-0.7876,-0.7934,-0.7981,-0.7995,-0.8015,-0.8005,-0.8004,-0.8012,-0.8053,-0.8048,-0.7988,-0.7988,-0.7988,-0.7988,-0.7989,-0.7989,-0.7393,-0.7418,-0.7451,-0.7496,-0.7533,-0.757,-0.7594,-0.7628,-0.7665,-0.7714,-0.7748,-0.7786,-0.7836,-0.7887,-0.7927,-0.7944,-0.7958,-0.7943,-0.7964,-0.8002,-0.8009,-0.8016,-0.8012,-0.7945,-0.7945,-0.7921,-0.792,-0.792]}]]